Livigno, Italy 16 day weather forecast

Slopes altitude range 1815 m - 2795m

Number of lifts: 30 Pistes: 115km

In some cases the lift and piste totals shown are for the ski domain (e.g. Three Valleys) rather than individual resort (e.g. Courchevel)

Overview

The 16 day weather forecast is fully updated 4 times every day.

    • Sun 26 MAY 2019
    • Sun 26
    • 0C 3C
    • Mon 27 MAY 2019
    • Mon 27
    • 3C 6C
    • Tue 28 MAY 2019
    • Tue 28
    • 1C 2C
    • Wed 29 MAY 2019
    • Wed 29
    • -3C -1C
    • Thu 30 MAY 2019
    • Thu 30
    • -2C 2C
    • Fri 31 MAY 2019
    • Fri 31
    • 2C 3C
    • Sat 01 JUN 2019
    • Sat 01
    • 1C 8C
    • Sun 02 JUN 2019
    • Sun 02
    • 5C 12C
    • Mon 03 JUN 2019
    • Mon 03
    • 9C 16C
    • Tue 04 JUN 2019
    • Tue 04
    • 11C 17C
    • Wed 05 JUN 2019
    • Wed 05
    • 11C 18C
    • Thu 06 JUN 2019
    • Thu 06
    • 11C 18C
    • Fri 07 JUN 2019
    • Fri 07
    • 10C 15C
    • Sat 08 JUN 2019
    • Sat 08
    • 10C 17C
    • Sun 09 JUN 2019
    • Sun 09
    • 12C 18C
    • Mon 10 JUN 2019
    • Mon 10
    • 12C 20C

Date:

Time Type 0°C level Temp Chill Snow Cloud Speed Gust Dir Press
12:00 2952m 3°C 3_1 0cm 96% 1mph 2mph 1015mB
15:00 3110m 5°C 5_1 0cm 97% 1mph 2mph 1014mB
18:00 3126m 5°C 5_2 0cm 98% 2mph 2mph 1014mB
21:00 3094m 2°C 2_2 0cm 82% 2mph 3mph 1016mB
0:00 3004m 1°C 1_4 0cm 91% 4mph 4mph 1014mB
3:00 2955m 1°C 1_4 0cm 94% 4mph 5mph 1013mB
6:00 3019m -1°C -1_3 0cm 88% 3mph 3mph 1012mB
9:00 3020m 3°C 3_3 0cm 100% 3mph 3mph 1012mB
12:00 3171m 6°C 6_3 0cm 100% 3mph 4mph 1010mB
15:00 3247m 6°C 6_4 0cm 100% 4mph 5mph 1009mB
18:00 3199m 6°C 6_6 0cm 100% 6mph 7mph 1009mB
21:00 3064m 3°C 3_7 0cm 100% 7mph 9mph 1009mB
0:00 2975m 2°C 2_8 0cm 100% 8mph 10mph 1008mB
3:00 2872m 2°C 2_8 1cm 100% 8mph 10mph 1006mB
6:00 2757m 2°C 2_9 2cm 100% 9mph 11mph 1006mB
9:00 2703m 2°C 2_8 2cm 100% 8mph 10mph 1007mB
12:00 2584m 2°C 2_9 3cm 100% 9mph 11mph 1007mB
15:00 2472m 1°C 1_11 3cm 100% 11mph 13mph 1007mB
18:00 2347m 1°C 1_11 3cm 100% 11mph 14mph 1008mB
21:00 2213m -2°C -2_12 2cm 100% 12mph 15mph 1010mB
0:00 2077m -3°C -3_12 1cm 100% 12mph 15mph 1011mB
3:00 1978m -3°C -3_13 1cm 100% 13mph 17mph 1012mB
6:00 2055m -3°C -3_13 1cm 100% 13mph 16mph 1013mB
9:00 2174m -3°C -3_13 1cm 100% 13mph 15mph 1014mB
12:00 2240m -1°C -1_12 1cm 100% 12mph 14mph 1015mB
15:00 2279m -1°C -1_12 1cm 100% 12mph 14mph 1016mB
18:00 2260m -1°C -1_12 1cm 100% 12mph 15mph 1018mB
21:00 2123m -2°C -2_11 1cm 96% 11mph 14mph 1022mB
0:00 2047m -3°C -3_11 1cm 97% 11mph 13mph 1023mB
3:00 1915m -4°C -4_10 0cm 81% 10mph 13mph 1023mB
6:00 2156m -4°C -4_10 0cm 84% 10mph 11mph 1023mB
9:00 2382m -2°C -2_10 0cm 87% 10mph 11mph 1022mB
12:00 2586m 2°C 2_10 0cm 65% 10mph 11mph 1021mB
15:00 2704m 3°C 3_11 0cm 10% 11mph 13mph 1021mB
18:00 2630m 3°C 3_10 0cm 5% 10mph 12mph 1022mB
21:00 2136m -2°C -2_10 0cm 4% 10mph 11mph 1025mB
0:00 2247m -2°C -2_9 0cm 50% 9mph 11mph 1025mB
3:00 2264m -1°C -1_9 1cm 100% 9mph 10mph 1024mB
6:00 2923m -1°C -1_8 1cm 100% 8mph 10mph 1023mB
9:00 3005m 2°C 2_8 1cm 100% 8mph 10mph 1023mB
12:00 2953m 3°C 3_11 0cm 100% 11mph 12mph 1022mB
15:00 2901m 5°C 5_12 0cm 99% 12mph 14mph 1021mB
18:00 2921m 5°C 5_11 1cm 98% 11mph 14mph 1022mB
21:00 2910m 0°C 0_11 0cm 94% 11mph 14mph 1024mB
0:00 2782m 0°C 0_11 0cm 95% 11mph 13mph 1025mB
3:00 2552m 0°C 0_11 0cm 98% 11mph 14mph 1026mB
6:00 2493m 0°C 0_11 0cm 98% 11mph 13mph 1026mB
9:00 2825m 1°C 1_10 0cm 11% 10mph 11mph 1026mB
12:00 3080m 8°C 8_12 0cm 6% 12mph 12mph 1025mB
15:00 3126m 8°C 8_13 0cm 0% 13mph 13mph 1025mB
18:00 2986m 8°C 8_11 0cm 0% 11mph 13mph 1026mB
21:00 2272m -1°C -1_7 0cm 0% 7mph 8mph 1029mB
0:00 2161m -2°C -2_4 0cm 0% 4mph 5mph 1029mB
3:00 2310m -2°C -2_5 0cm 0% 5mph 7mph 1029mB
6:00 3500m -2°C -2_7 0cm 0% 7mph 8mph 1027mB
9:00 3428m 5°C 5_9 0cm 0% 9mph 10mph 1026mB
12:00 3522m 12°C 12_11 0cm 0% 11mph 10mph 1024mB
15:00 3557m 12°C 12_12 0cm 0% 12mph 12mph 1023mB
18:00 3479m 12°C 12_8 0cm 0% 8mph 9mph 1024mB
21:00 3529m 4°C 4_5 0cm 0% 5mph 6mph 1027mB
0:00 3557m 3°C 3_5 0cm 0% 5mph 7mph 1027mB
3:00 3552m 3°C 3_5 0cm 0% 5mph 7mph 1026mB
6:00 3503m 3°C 3_4 0cm 0% 4mph 5mph 1024mB
9:00 3476m 9°C 9_5 0cm 0% 5mph 6mph 1022mB
12:00 3360m 16°C 16_7 0cm 0% 7mph 8mph 1021mB
15:00 3395m 16°C 16_7 0cm 0% 7mph 8mph 1019mB
18:00 3642m 17°C 17_4 0cm 0% 4mph 5mph 1020mB
21:00 3656m 6°C 6_4 0cm 0% 4mph 5mph 1022mB
0:00 3658m 5°C 5_4 0cm 0% 4mph 5mph 1021mB
3:00 3506m 4°C 4_4 0cm 0% 4mph 5mph 1021mB
6:00 3665m 4°C 4_1 0cm 0% 1mph 1mph 1020mB
9:00 3679m 11°C 11_5 0cm 16% 5mph 5mph 1019mB
12:00 3600m 17°C 17_7 0cm 8% 7mph 6mph 1017mB
15:00 3684m 17°C 17_8 0cm 0% 8mph 7mph 1016mB
18:00 3749m 17°C 17_6 0cm 0% 6mph 8mph 1017mB
21:00 3716m 7°C 7_1 0cm 1% 1mph 2mph 1019mB
0:00 3717m 6°C 6_3 0cm 0% 3mph 4mph 1019mB
3:00 3721m 5°C 5_4 0cm 38% 4mph 5mph 1019mB
6:00 3647m 5°C 5_2 0cm 37% 2mph 2mph 1018mB
Afternoon 0mm 0 3614m 18°C 18_8 0cm 20% 8mph 12mph 1016mB
Morning 0mm 0 3533m 5°C 5_1 0cm 83% 1mph 1mph 1017mB
Afternoon 0.109375mm 1.3125 3534m 18°C 18_7 0cm 81% 7mph 12mph 1015mB
Morning 0.0833333mm 0.75 3297m 6°C 6_2 0cm 82% 2mph 4mph 1015mB
Afternoon 0.546875mm 6.125 3446m 15°C 15_6 0cm 71% 6mph 8mph 1015mB
Morning 0.0104167mm 0.125 3448m 6°C 6_2 0cm 86% 2mph 3mph 1016mB
Afternoon 1.17708mm 11.3125 3674m 17°C 17_3 0cm 89% 3mph 4mph 1016mB
Morning 0.619792mm 1.8125 3618m 8°C 8_3 0cm 93% 3mph 3mph 1019mB
Afternoon 1.69792mm 20.0625 3788m 18°C 18_4 0cm 73% 4mph 5mph 1016mB
Morning 0.208333mm 1.875 3709m 9°C 9_7 0cm 98% 7mph 11mph 1016mB
Afternoon 0.53125mm 5.875 3954m 20°C 20_3 0cm 91% 3mph 4mph 1013mB
Morning 0.078125mm 0.9375 3779m 7°C 7_3 0cm 45% 3mph 6mph 1016mB

16 day outlook at a glance

Forecast issued: 26/05/2019 11:50:14

Chat

Your comments and questions. In a resort? Let us know what it's like!


Characters left 250

For terms and conditions see Readers Comments on the Cookie and privacy policy page.